Total_Precipitation_Accumulation
0.07 0.11 0.26 0.26 0.27 0.24 0.23 0.22 0.22 0.24 0.30 0.36 0.33 0.28 0.28 0.29 0.29 0.26 0.31 0.33 0.35 0.38 0.36 0.38 0.41 0.43 0.45 0.44 0.33 0.20 0.13 0.12 0.10 0.08 0.09 0.10 0.11 0.12 0.12 0.12 0.14 0.17 0.19
0.06 0.10 0.24 0.25 0.28 0.27 0.26 0.23 0.22 0.24 0.30 0.37 0.39 0.36 0.35 0.35 0.34 0.32 0.31 0.33 0.35 0.35 0.36 0.35 0.30 0.25 0.22 0.20 0.16 0.12 0.10 0.07 0.04 0.03 0.03 0.04 0.07 0.09 0.08 0.08 0.11 0.17 0.21
0.07 0.12 0.22 0.26 0.29 0.28 0.27 0.23 0.22 0.25 0.32 0.37 0.41 0.45 0.41 0.38 0.37 0.38 0.39 0.36 0.37 0.34 0.35 0.29 0.22 0.17 0.15 0.12 0.10 0.09 0.08 0.05 0.04 0.03 0.03 0.04 0.06 0.09 0.10 0.11 0.14 0.19 0.23
0.08 0.13 0.20 0.27 0.30 0.30 0.29 0.28 0.25 0.27 0.32 0.38 0.43 0.46 0.44 0.43 0.45 0.42 0.40 0.35 0.34 0.29 0.27 0.20 0.15 0.13 0.11 0.09 0.08 0.07 0.07 0.07 0.05 0.04 0.05 0.06 0.08 0.14 0.17 0.19 0.20 0.21 0.21
0.14 0.17 0.27 0.34 0.35 0.34 0.32 0.32 0.31 0.30 0.34 0.40 0.48 0.53 0.51 0.51 0.51 0.45 0.37 0.31 0.26 0.22 0.21 0.16 0.11 0.09 0.08 0.06 0.06 0.05 0.06 0.06 0.04 0.03 0.03 0.06 0.11 0.17 0.20 0.22 0.25 0.25 0.22
0.23 0.26 0.35 0.42 0.45 0.42 0.39 0.36 0.36 0.37 0.36 0.40 0.48 0.53 0.53 0.53 0.55 0.46 0.38 0.28 0.21 0.18 0.18 0.15 0.11 0.11 0.09 0.07 0.06 0.06 0.07 0.06 0.03 0.02 0.04 0.07 0.11 0.18 0.19 0.21 0.25 0.29 0.32
0.39 0.44 0.47 0.52 0.54 0.52 0.49 0.44 0.40 0.40 0.40 0.43 0.50 0.52 0.55 0.54 0.54 0.52 0.42 0.26 0.18 0.17 0.18 0.16 0.14 0.14 0.12 0.09 0.09 0.09 0.09 0.05 0.03 0.03 0.05 0.07 0.11 0.18 0.21 0.23 0.25 0.28 0.32
0.59 0.69 0.69 0.71 0.64 0.59 0.54 0.55 0.50 0.48 0.47 0.49 0.56 0.55 0.57 0.57 0.56 0.55 0.45 0.31 0.21 0.18 0.19 0.19 0.17 0.16 0.15 0.12 0.11 0.11 0.10 0.06 0.03 0.02 0.04 0.06 0.10 0.18 0.23 0.24 0.24 0.24 0.26
0.95 1.02 0.91 0.85 0.73 0.69 0.61 0.54 0.54 0.54 0.53 0.56 0.59 0.56 0.56 0.53 0.53 0.52 0.45 0.33 0.27 0.24 0.24 0.23 0.21 0.18 0.16 0.15 0.13 0.10 0.08 0.05 0.03 0.02 0.03 0.05 0.09 0.17 0.22 0.26 0.28 0.27 0.28
1.28 1.37 1.27 1.08 0.93 0.82 0.73 0.58 0.51 0.52 0.52 0.52 0.49 0.42 0.40 0.44 0.48 0.44 0.35 0.29 0.26 0.23 0.23 0.22 0.21 0.20 0.18 0.15 0.12 0.09 0.07 0.06 0.04 0.03 0.05 0.06 0.11 0.20 0.27 0.30 0.32 0.30 0.30
1.53 1.59 1.62 1.41 1.16 0.99 0.85 0.66 0.58 0.55 0.52 0.49 0.42 0.34 0.32 0.36 0.41 0.35 0.25 0.21 0.25 0.26 0.23 0.21 0.20 0.20 0.17 0.12 0.10 0.08 0.07 0.05 0.05 0.05 0.05 0.09 0.18 0.27 0.29 0.27 0.27 0.27 0.29
1.55 1.60 1.76 1.61 1.40 1.22 1.03 0.80 0.72 0.66 0.57 0.49 0.40 0.36 0.33 0.33 0.37 0.31 0.28 0.23 0.24 0.25 0.24 0.25 0.24 0.23 0.20 0.14 0.12 0.11 0.09 0.07 0.07 0.06 0.07 0.13 0.22 0.28 0.27 0.25 0.25 0.25 0.28
1.64 1.77 1.89 1.87 1.62 1.47 1.31 0.99 0.75 0.69 0.66 0.61 0.49 0.42 0.41 0.40 0.41 0.40 0.35 0.31 0.27 0.23 0.22 0.22 0.23 0.20 0.18 0.17 0.16 0.14 0.12 0.11 0.10 0.09 0.09 0.10 0.15 0.24 0.29 0.27 0.27 0.26 0.27
1.76 1.82 1.91 2.06 1.86 1.60 1.43 1.25 1.00 0.78 0.68 0.65 0.57 0.48 0.49 0.48 0.41 0.37 0.34 0.30 0.31 0.27 0.23 0.22 0.21 0.18 0.18 0.17 0.17 0.17 0.16 0.14 0.12 0.11 0.11 0.12 0.13 0.18 0.25 0.30 0.30 0.30 0.30
1.73 1.88 1.95 2.02 2.02 1.78 1.56 1.36 1.23 1.02 0.80 0.76 0.72 0.62 0.56 0.53 0.45 0.37 0.34 0.36 0.37 0.36 0.32 0.27 0.25 0.23 0.22 0.20 0.18 0.17 0.18 0.19 0.16 0.14 0.13 0.13 0.12 0.14 0.19 0.27 0.34 0.38 0.41
1.58 1.81 1.94 1.99 2.09 2.02 1.72 1.51 1.34 1.14 0.93 0.88 0.83 0.75 0.73 0.66 0.62 0.53 0.45 0.41 0.41 0.41 0.40 0.37 0.33 0.32 0.28 0.26 0.22 0.20 0.19 0.20 0.22 0.20 0.18 0.17 0.14 0.13 0.14 0.21 0.31 0.40 0.47
1.51 1.74 1.82 1.93 2.10 2.13 1.96 1.78 1.53 1.37 1.10 0.93 0.86 0.83 0.85 0.78 0.71 0.65 0.60 0.56 0.51 0.50 0.49 0.47 0.46 0.45 0.39 0.34 0.29 0.27 0.25 0.25 0.26 0.26 0.25 0.23 0.19 0.16 0.15 0.19 0.27 0.38 0.46
1.66 1.73 1.79 1.89 2.08 2.09 2.07 2.04 1.89 1.71 1.49 1.19 1.02 0.98 0.94 0.90 0.85 0.77 0.68 0.57 0.51 0.58 0.58 0.54 0.50 0.47 0.41 0.34 0.29 0.28 0.27 0.27 0.28 0.30 0.33 0.32 0.29 0.24 0.20 0.18 0.21 0.29 0.39
1.73 1.77 1.88 1.90 2.09 2.19 2.13 2.14 2.08 1.94 1.82 1.63 1.29 1.08 1.03 1.01 0.98 0.93 0.79 0.71 0.66 0.58 0.58 0.60 0.54 0.47 0.43 0.39 0.35 0.30 0.26 0.24 0.25 0.25 0.26 0.29 0.31 0.31 0.27 0.25 0.24 0.25 0.32
1.71 1.78 1.89 1.93 2.07 2.36 2.43 2.35 2.35 2.09 1.87 1.86 1.63 1.32 1.17 1.16 1.15 1.10 0.97 0.88 0.88 0.80 0.68 0.62 0.58 0.53 0.46 0.47 0.48 0.43 0.37 0.33 0.29 0.27 0.26 0.26 0.26 0.27 0.27 0.23 0.23 0.23 0.26
1.65 1.74 1.80 1.88 1.97 2.21 2.39 2.37 2.30 2.17 1.94 1.81 1.76 1.60 1.42 1.32 1.35 1.31 1.22 1.11 1.02 0.92 0.82 0.76 0.73 0.68 0.62 0.60 0.61 0.52 0.45 0.42 0.39 0.35 0.34 0.34 0.32 0.31 0.30 0.27 0.25 0.23 0.22
1.40 1.58 1.72 1.80 1.91 1.95 2.04 2.27 2.40 2.46 2.31 2.04 1.86 1.73 1.57 1.45 1.41 1.35 1.34 1.31 1.21 1.12 1.06 1.01 0.98 0.92 0.85 0.84 0.83 0.79 0.63 0.48 0.38 0.34 0.35 0.36 0.36 0.36 0.34 0.31 0.28 0.27 0.24
1.20 1.40 1.64 1.77 1.89 1.92 1.97 2.22 2.44 2.60 2.45 2.18 1.85 1.66 1.63 1.61 1.57 1.44 1.41 1.44 1.36 1.26 1.15 1.11 1.11 1.08 1.01 0.97 0.96 1.00 0.86 0.60 0.41 0.32 0.29 0.30 0.34 0.36 0.37 0.39 0.40 0.38 0.33
1.07 1.22 1.36 1.52 1.70 1.88 1.97 2.02 2.08 2.19 2.18 1.97 1.88 1.79 1.78 1.75 1.71 1.62 1.54 1.52 1.48 1.40 1.25 1.20 1.17 1.12 1.09 1.03 0.98 0.90 0.82 0.67 0.62 0.47 0.32 0.30 0.33 0.34 0.37 0.40 0.44 0.47 0.48
0.94 1.17 1.28 1.35 1.53 1.73 1.87 1.95 2.05 2.02 2.05 2.12 2.08 2.00 1.89 1.82 1.76 1.67 1.58 1.56 1.48 1.42 1.37 1.37 1.30 1.26 1.18 1.11 1.05 0.98 0.94 0.81 0.68 0.65 0.49 0.35 0.35 0.36 0.39 0.42 0.46 0.48 0.50
0.82 1.03 1.23 1.25 1.34 1.47 1.67 1.88 1.96 1.88 1.90 1.95 1.94 1.90 1.89 1.88 1.83 1.72 1.59 1.51 1.45 1.40 1.39 1.40 1.43 1.37 1.30 1.24 1.18 1.12 1.09 1.02 0.87 0.82 0.73 0.51 0.44 0.39 0.39 0.41 0.43 0.45 0.48